Flag for Spain Weather past 2 weeks in Huelva, Spain

Now
61 °F

Sprinkles. Partly sunny.


Feels Like: 61 °F
Forecast: 54 / 73 °F
Wind: 13 mph from West

Location: Rota Airport

Current Time: Apr 27, 2015 at 9:59:30 AM

Latest Report: Apr 27, 2015 at 9:00 AM


Visibility: N/A

Pressure: 30.04 "Hg

Humidity: 83%

Dew point: 55 °F

Location of HuelvaLocation

Historic Weather in Huelva — Graph

°F

Huelva temperature yesterday

Maximum temperature yesterday: 66 °F (at 3:00 PM)
Minimum temperature yesterday: 61 °F (at 8:00 AM)
Average temperature yesterday: 63 °F

Past Weeks' High & Low Weather Summary

 TemperatureHumidityPressure
High73 °F (Apr 13, 3:00 PM)100% (Apr 15, 4:00 AM)30.18 "Hg (Apr 15, 4:00 AM)
Low52 °F (Apr 12, 8:00 AM)44% (Apr 13, 7:00 PM)29.89 "Hg (Apr 26, 8:00 AM)
Average62 °F78%30.04 "Hg
* Reported Apr 12 8:00 AM — Apr 27 8:00 AM, Huelva, Weather by CustomWeather, © 2015

Note: Actual official high and low records may vary slightly from our data, if they occured in-between our weather recording intervals... More about our weather records

Advertising

Huelva weather history for previous 24 hours

 ConditionsComfort  
Time TempWeatherWind HumidityBarometerVisibility
8:00 AM
Mon, Apr 27
61 °FLight rain. Partly cloudy.12 mph83%30.01 "HgN/A
7:00 AM61 °FPassing clouds.12 mph77%30.01 "HgN/A
6:00 AM61 °FPassing clouds.10 mph77%30.01 "HgN/A
5:00 AM61 °FPassing clouds.14 mph77%30.01 "HgN/A
4:00 AM59 °FPassing clouds.9 mph82%30.01 "HgN/A
3:00 AM61 °FPassing clouds.13 mph83%30.01 "HgN/A
2:00 AM61 °FPassing clouds.17 mph83%30.01 "HgN/A
1:00 AM61 °FPassing clouds.18 mph83%30.01 "HgN/A
12:00 AM63 °FPassing clouds.17 mph83%30.01 "HgN/A
11:00 PM
Sun, Apr 26
63 °FPassing clouds.20 mph77%29.98 "HgN/A
10:00 PM63 °FPassing clouds.21 mph77%29.95 "HgN/A
9:00 PM63 °FPassing clouds.20 mph77%29.95 "HgN/A
8:00 PM64 °FPassing clouds.24 mph68%29.92 "HgN/A
7:00 PM64 °FPassing clouds.25 mph78%29.92 "HgN/A
6:00 PM66 °FPassing clouds.22 mph73%29.89 "HgN/A
5:00 PM66 °FPassing clouds.25 mph73%29.89 "HgN/A
4:03 PM66 °FScattered clouds.24 mph78%29.89 "HgN/A
3:00 PM66 °FScattered clouds.22 mph83%29.89 "HgN/A
2:00 PM64 °FBroken clouds.20 mph88%29.89 "HgN/A
1:00 PM63 °FLight rain. Broken clouds.17 mph94%29.89 "Hg4 mi
12:00 PM63 °FLight rain. Partly sunny.14 mph100%29.89 "Hg4 mi
11:00 AM63 °FLight rain. Broken clouds.13 mph94%29.89 "Hg4 mi
10:00 AM63 °FPartly sunny.13 mph94%29.92 "HgN/A
9:00 AM63 °FPartly sunny.12 mph88%29.92 "HgN/A
Weather by CustomWeather, © 2015

See weather overviewHow to use our weather pages